Content
SEND FEEDBACK

Daily
Averages
Monthly
Summary
United States of America

ASATDAS, GUAM


Home > North America > United States > Guam
Elevation: 612 feet     Latitude: 13 35N     Longitude: 144 56E

WEATHER
 
SELECT A DAY
Number of Records: 214,904;   Date Range: 1/1/95 - 11/25/14
 
SHARE

PRINT THIS DATA

[ ← Previous Day ]
WEATHER ALMANAC - NOVEMBER 1, 2013
[ Next Day → ]
[ °C ]   °F
Weather ElementAverageHighLow
Temperature82.8 °F87.8 °F (11:13 am)80.1 °F (1:54 am)
Dewpoint76.5 °F79 °F (12:54 pm)75 °F (2:54 pm)
Humidity81.8 %94 % (12:02 pm)66 % (2:49 pm)
Barometer29.87 in29.91 in (8:54 am)29.82 in (2:54 pm)
Wind Speed10.9 mph17.3 mph (11:13 am)
Wind Gust28.8 mph (11:54 am)
Weather ElementAverage
Visibility9.4 mi
Wind DirectionENE (76.6 °)

Weather ElementTotal
Precipitation0.21 in
Cooling Degree Days19 (Base 65)
Growing Degree Days34 (Base 50)
Averaged from 32 records on November 1, 2013
WEATHER CONDITIONS BREAKOUT
WIND DIRECTION BREAKOUT
WEATHER BY HOUR - NOVEMBER 1, 2013
[ °C ]   °F
Local TimeTemperatureDewpointHumidityBarometerVisibilityWind DirectionWind SpeedGust SpeedPrecipitationEventsConditions
1:54 AM80.1 °F77.0 °F90 %29.87 in10.0 miEast (90°)8.1 mphClear
2:31 AM80.6 °F77.0 °F89 %29.88 in10.0 miEast (80°)9.2 mphMostly Cloudy
2:41 AM80.6 °F75.2 °F84 %29.88 in10.0 miEast (90°)6.9 mphMostly Cloudy
2:54 AM80.1 °F77.0 °F90 %29.86 in10.0 miEast (90°)5.8 mphMostly Cloudy
3:54 AM81.0 °F75.9 °F85 %29.86 in10.0 miEast (90°)9.2 mph0.00 inPartly Cloudy
4:54 AM80.1 °F75.9 °F87 %29.85 in10.0 miEast (80°)6.9 mphPartly Cloudy
5:54 AM80.1 °F75.9 °F87 %29.86 in10.0 miENE (70°)5.8 mphPartly Cloudy
6:54 AM81.0 °F77.0 °F88 %29.88 in10.0 miENE (70°)8.1 mphScattered Clouds
7:54 AM82.9 °F78.1 °F85 %29.89 in10.0 miEast (80°)8.1 mphClear
8:54 AM82.0 °F78.1 °F88 %29.91 in7.0 miESE (110°)8.1 mph0.00 inRainLight Rain
9:54 AM84.9 °F77.0 °F77 %29.91 in10.0 miEast (90°)15.0 mph21.9 mph0.00 inScattered Clouds
10:54 AM86.0 °F75.9 °F72 %29.90 in10.0 miEast (90°)13.8 mph23.0 mphScattered Clouds
11:13 AM87.8 °F77.0 °F70 %29.91 in10.0 miENE (70°)17.3 mph23.0 mphMostly Cloudy
11:21 AM87.8 °F77.0 °F70 %29.91 in10.0 miEast (80°)16.1 mph23.0 mphScattered Clouds
11:54 AM82.0 °F77.0 °F85 %29.89 in5.0 miNE (50°)17.3 mph28.8 mph0.00 inRainLight Rain
12:02 PM80.6 °F78.8 °F94 %29.90 in6.0 miENE (70°)12.7 mph0.00 inRainLight Rain
12:12 PM80.6 °F75.2 °F84 %29.90 in2.5 miEast (90°)8.1 mph19.6 mph0.06 inRainLight Rain
12:19 PM80.6 °F77.0 °F89 %29.90 in10.0 miEast (90°)8.1 mph0.06 inMostly Cloudy
12:54 PM84.0 °F79.0 °F85 %29.85 in10.0 miENE (70°)16.1 mph23.0 mph0.09 inScattered Clouds
1:54 PM86.0 °F78.1 °F77 %29.83 in10.0 miENE (70°)12.7 mph19.6 mphPartly Cloudy
2:36 PM84.2 °F75.2 °F74 %29.85 in10.0 miEast (80°)11.5 mph21.9 mphMostly Cloudy
2:49 PM87.8 °F75.2 °F66 %29.84 in10.0 miENE (70°)15.0 mphPartly Cloudy
2:54 PM86.0 °F75.0 °F70 %29.82 in10.0 miEast (90°)15.0 mphPartly Cloudy
3:54 PM86.0 °F75.0 °F70 %29.83 in10.0 miEast (80°)16.1 mphPartly Cloudy
4:54 PM84.9 °F75.0 °F72 %29.83 in10.0 miENE (60°)16.1 mphPartly Cloudy
5:54 PM82.9 °F75.9 °F79 %29.84 in10.0 miENE (70°)9.2 mphPartly Cloudy
6:54 PM82.0 °F75.9 °F82 %29.86 in10.0 miENE (60°)9.2 mphScattered Clouds
7:54 PM82.0 °F75.9 °F82 %29.88 in10.0 miENE (60°)9.2 mphPartly Cloudy
8:54 PM81.0 °F77.0 °F88 %29.91 in10.0 miENE (70°)8.1 mph0.00 inScattered Clouds
9:54 PM81.0 °F75.9 °F85 %29.90 in10.0 miENE (70°)9.2 mphPartly Cloudy
10:54 PM81.0 °F75.9 °F85 %29.89 in10.0 miENE (60°)9.2 mphPartly Cloudy
11:54 PM81.0 °F77.0 °F88 %29.88 in10.0 miENE (60°)8.1 mphPartly Cloudy
Hourly data recorded from PGUM, located miles away from Asatdas, Guam







STORIES FROM OUR PARTNERS